Tracking 30115 objects as of 16-Jan-2025
HD Live streaming from Space Station
objects crossing your sky now

NAVSTAR 78 (USA 293)

Track NAVSTAR 78 (USA 293) now!
NAVSTAR 78 (USA 293) is classified as:


NORAD ID: 44506
Int'l Code: 2019-056A
Perigee: 20,060.5 km
Apogee: 20,318.9 km
Inclination: 55.8 °
Period: 718.0 minutes
Semi major axis: 26560 km
RCS: Unknown
Launch date: August 22, 2019
Source: United States (US)
Launch site: AIR FORCE EASTERN TEST RANGE (AFETR)
PRN: 18
Your satellite tracking list
Your tracking list is empty




NASA's NSSDC Master Catalog

Two Line Element Set (TLE):
1 44506U 19056A   25015.23803969 -.00000103  00000-0  00000-0 0  9998
2 44506  55.8187 351.6915 0048644 194.7793 247.0628  2.00559458 39684
Source of the keplerian elements: AFSPC